Hourly Data Report for October 12, 2019

All times are specified in Local Standard Time (LST). Add 1 hour to adjust for Daylight Saving Time where and when it is observed.

EUREKA CLIMATE
NUNAVUT
Current Station Operator: ECCC - MSC

79°59'21.000" N
85°56'02.000" W
10.00 m
2401199
71613
NEK

Download Data

Hourly Data (October 2019)
Hourly Data Report for October 12, 2019
TIME Temp Definition
°C
Dew Point Definition
°C
Rel Hum Definition
%
Wind Dir Definition
10's deg

Wind Spd Definition
km/h
Visibility Definition
km
Stn Press Definition
kPa
Hmdx Definition


Wind Chill Definition


Weather Definition


00:00 -5.4 -6.2 94 28 31   100.47   -14 LegendNANA
01:00 -5.8 -6.8 93 28 31   100.54   -14 LegendNANA
02:00 -6.0 -6.8 94 29 30   100.60   -14 LegendNANA
03:00 -5.9 -7.0 92 29 30   100.64   -14 LegendNANA
04:00 -6.1 -7.2 92 29 32   100.68   -15 LegendNANA
05:00 -6.8 -7.8 92 29 40   100.72   -16 LegendNANA
06:00 -7.2 -8.5 91 29 32   100.77   -16 LegendNANA
07:00 -8.1 -9.6 89 31 17   100.81   -15 LegendNANA
08:00 -7.7 -9.2 89 29 26   100.86   -16 LegendNANA
09:00 -11.1 -12.1 92 35 4   100.90   -14 LegendNANA
10:00 -12.1 -13.4 90 3 7   100.92   -16 LegendNANA
11:00 -10.6 -11.7 92 2 3   100.97   -12 LegendNANA
12:00 -11.7 -13.2 89 1 7   101.01   -16 LegendNANA
13:00 -11.1 -12.1 92 36 7   101.05   -15 LegendNANA
14:00 -8.3 -9.6 90 29 19   101.08   -16 LegendNANA
15:00 -11.1 -12.4 90 2 11   101.11   -17 LegendNANA
16:00 -11.3 -12.6 90 2 12   101.14   -17 LegendNANA
17:00 -10.5 -11.6 92 2 11   101.15   -16 LegendNANA
18:00 -10.4 -11.5 92 2 12   101.17   -16 LegendNANA
19:00 -10.6 -11.8 91 2 13   101.17   -17 LegendNANA
20:00 -9.2 -9.9 95 9 7   101.17   -13 LegendNANA
21:00 -9.5 -10.3 94 8 7   101.15   -13 LegendNANA
22:00 -10.6 -11.5 93 3 10   101.14   -16 LegendNANA
23:00 -11.2 -12.3 91 2 11   101.12   -17 LegendNANA

Notes on Data Quality.

Legend

  • E = Estimated
  • M = Missing
  • NA = Not Available
Date modified: